Location: R�o Medio
(42.4667°N, 3.0167°W)
Time: 16:35:14
(UTC+00:00)

Lacrosse 5 - Pass Details

Date: 27 February 2020
Orbit: 715 x 724 km, 57.0° (Epoch: 21 March)

Event Time Altitude Azimuth Distance (km) Brightness Sun altitude
Rises 20:26:37 0° 254° (WSW) 3,110 6.0 -27.9°
Reaches altitude 10° 20:29:11 10° 263° (W) 2,193 5.2 -28.3°
Maximum altitude 20:33:47 34° 329° (NNW) 1,162 3.2 -29.1°
Enters shadow 20:34:52 31° 355° (N) 1,243 3.2 -29.3°
